[[[{"header":{"parameterUnit":"kt","parameterCategory":2,"dx":1,"dy":1,"la1":30.253999710083008,"la2":30.299108505249023,"lo1":-89.0895004272461,"lo2":-89.04439544677734,"nx":28,"ny":28,"refTime":"2022-10-10T21:00:00:Z","depth":0,"parameterNumber":1,"parameterNumberName":"U-component_of_WINDS"},"data":[-6.7846,-6.7956,-6.7934,-6.8049,-6.8048,-6.8123,-6.8143,-6.8166,-6.8178,-6.8264,-6.831,-6.8298,-6.83,-6.8349,-6.8397,-6.839,-6.8414,-6.847,-6.8453,-6.822,-6.8187,-6.8154,-6.8127,-6.8475,-6.8475,-6.8697,-6.8699,-6.8701,-6.7681,-6.7682,-6.7735,-6.7772,-6.7818,-6.775,-6.7774,-6.7817,-6.7886,-6.7901,-6.7944,-6.8018,-6.8073,-6.8055,-6.8105,-6.8156,-6.8127,-6.8171,-6.8168,-6.8169,-6.792,-6.7891,-6.8194,-6.8194,-6.8194,-6.8194,-6.8194,-6.8194,-6.7374,-6.7441,-6.7449,-6.7507,-6.7519,-6.7544,-6.7603,-6.7586,-6.7638,-6.7686,-6.7647,-6.7723,-6.7734,-6.778,-6.7789,-6.7849,-6.7795,-6.7836,-6.7847,-6.7858,-6.7876,-6.7562,-6.7855,-6.7854,-6.7854,-6.7853,-6.7852,0,-6.7143,-6.7119,-6.7168,-6.7211,-6.7252,-6.7282,-6.7306,-6.7342,-6.7281,-6.7327,-6.739,-6.7423,-6.7487,-6.7544,-6.7584,-6.7584,-6.7518,-6.7508,-6.7536,-6.7558,-6.7573,-6.7569,-6.7165,-6.75,-6.7497,-6.7494,-6.7493,-6.7491,-6.6833,-6.6913,-6.6909,-6.6947,-6.6953,-6.7015,-6.7047,-6.6987,-6.7023,-6.7043,-6.7105,-6.716,-6.7202,-6.7307,-6.7285,-6.7333,-6.7301,-6.7432,-6.7308,-6.7326,-6.7306,-6.7302,-6.7311,-6.7458,-6.7462,-6.7466,-6.7469,0,-6.6662,-6.6621,-6.6737,-6.6723,-6.6723,-6.6809,-6.6798,-6.6861,-6.6836,-6.692,-6.6936,-6.6897,-6.696,-6.6916,-6.6978,-6.6953,-6.7097,-6.7064,-6.7094,-6.7086,-6.72,-6.7191,-6.7574,-6.7622,-6.7259,-6.7263,-6.7265,0,-6.6383,-6.6489,-6.6422,-6.6491,-6.6607,-6.6543,-6.666,-6.6649,-6.6655,-6.6721,-6.6637,-6.67,-6.6632,-6.6689,-6.6652,-6.6762,-6.6772,-6.6761,-6.675,-6.6769,-6.6771,-6.6789,-6.6773,-6.6719,-6.6717,-6.6716,-6.6714,0,-6.612,-6.6207,-6.6318,-6.6331,-6.6327,-6.6381,-6.6382,-6.6387,-6.6418,-6.6451,-6.6471,-6.6514,-6.6538,-6.6573,-6.6526,-6.6443,-6.6657,-6.6534,-6.6645,-6.6647,-6.6696,-6.6694,-6.7043,-6.6712,-6.6711,-6.6711,-6.671,0,-6.5888,-6.5922,-6.6089,-6.6083,-6.6108,-6.6181,-6.6219,-6.627,-6.6282,-6.6263,-6.6288,-6.6227,-6.6316,-6.6198,-6.6321,-6.6228,-6.6257,-6.6252,-6.6259,-6.6266,-6.6135,-6.6341,-6.6676,-6.6711,-6.6271,-6.6268,-6.6264,0,-6.56,-6.5755,-6.5701,-6.586,-6.5925,-6.5826,-6.5906,-6.5918,-6.5899,-6.5952,-6.593,-6.5991,-6.5892,-6.5905,-6.5972,-6.5952,-6.6074,-6.5934,-6.6014,-6.6017,-6.6016,-6.6324,-6.6386,-6.6607,-6.6217,-6.6222,-6.6225,0,-6.5371,-6.5363,-6.5395,-6.5407,-6.5412,-6.5465,-6.5557,-6.5602,-6.564,-6.5662,-6.5737,-6.582,-6.575,-6.5771,-6.5725,-6.5797,-6.599,-6.5712,-6.5711,-6.5765,-6.6188,-6.6247,-6.6284,-6.5943,-6.5948,-6.5953,-6.6188,0,-6.5034,-6.5105,-6.5189,-6.5217,-6.5251,-6.5347,-6.5297,-6.534,-6.5292,-6.5268,-6.5377,-6.5374,-6.542,-6.5448,-6.5402,-6.558,-6.5544,-6.5467,-6.5349,-6.5551,-6.5627,-6.5658,-6.524,-6.5236,-6.5233,-6.5231,0,0,-6.4769,-6.4869,-6.4804,-6.4889,-6.4914,-6.4809,-6.4916,-6.4927,-6.4954,-6.4973,-6.4907,-6.5024,-6.5024,-6.5161,-6.522,-6.5238,-6.5266,-6.5196,-6.5455,-6.548,-6.5503,-6.5586,-6.5619,-6.5225,-6.5224,-6.5223,-6.5222,0,-6.4635,-6.4636,-6.4742,-6.4751,-6.4762,-6.4731,-6.4757,-6.4748,-6.4738,-6.4843,-6.4755,-6.4814,-6.4908,-6.492,-6.4939,-6.5178,-6.5109,-6.5196,-6.5342,-6.5425,-6.5454,-6.548,-6.5567,-6.5599,-6.5214,-6.5214,-6.5215,0,-6.4402,-6.4396,-6.4441,-6.449,-6.4496,-6.4565,-6.4428,-6.4506,-6.4557,-6.4437,-6.4543,-6.4534,-6.4545,-6.4681,-6.4739,-6.468,-6.497,-6.4868,-6.4887,-6.4893,-6.497,-6.5005,-6.5037,-6.4621,-6.4619,-6.4617,0,0,-6.4294,-6.4358,-6.4331,-6.4457,-6.4467,-6.4423,-6.4453,-6.4408,-6.442,-6.4425,-6.4412,-6.4427,-6.4481,-6.4518,-6.4565,-6.4721,-6.4719,-6.4797,-6.4825,-6.4848,-6.4867,-6.495,-6.4985,-6.4611,-6.461,-6.461,0,0,-6.4242,-6.4215,-6.4164,-6.4304,-6.4318,-6.43,-6.4379,-6.4316,-6.4353,-6.4336,-6.4263,-6.4264,-6.4389,-6.4384,-6.4296,-6.4523,-6.4407,-6.4427,-6.4522,-6.4556,-6.4584,-6.4583,-6.4156,0,0,0,0,0,-6.4079,-6.4218,-6.4172,-6.4188,-6.4249,-6.4325,-6.4333,-6.4275,-6.4195,-6.4259,-6.4238,-6.416,-6.4322,-6.4242,-6.4259,-6.4358,-6.452,-6.4536,-6.4551,-6.471,-6.4747,-6.4778,0,0,0,0,0,0,-6.4084,-6.4104,-6.4168,-6.4157,-6.417,-6.432,-6.4171,-6.4159,-6.4186,-6.417,-6.4167,-6.416,-6.4113,-6.4229,-6.4246,-6.4341,-6.415,-6.4526,-6.454,-6.4552,-6.4723,-6.4753,-6.4779,0,0,0,0,0,-6.4089,-6.4104,-6.4217,-6.4154,-6.4166,-6.4123,-6.4165,-6.4154,-6.4174,-6.4141,-6.4132,-6.4128,-6.4117,-6.4127,-6.4239,-6.4335,-6.4139,-6.4145,-6.4535,-6.4546,-6.4556,-6.4738,0,0,0,0,0,0,-6.4092,-6.4095,-6.4218,-6.4219,-6.4097,-6.4113,-6.4113,-6.415,-6.4142,-6.4135,-6.4098,-6.4086,-6.4122,-6.4128,-6.4136,-6.4336,-6.4129,-6.4136,-6.4139,-6.4543,-6.4552,-6.4559,0,0,0,0,0,0,-6.4086,-6.4097,-6.4218,-6.4149,-6.4142,-6.4105,-6.4105,-6.4191,-6.4143,-6.4099,-6.4088,-6.4093,-6.411,-6.413,-6.4136,-6.4273,-6.4122,-6.4128,-6.4132,-6.4135,-6.455,-6.4557,0,0,0,0,0,0,-6.4089,-6.4099,-6.4148,-6.4143,-6.4136,-6.4147,-6.4179,-6.4245,-6.4084,-6.4101,-6.4068,-6.4061,-6.4114,-6.4119,-6.4137,-6.4272,-6.4273,-6.4122,-6.4126,-6.4129,-6.4131,0,0,0,0,0,0,0,-6.4092,-6.4044,-6.421,-6.4138,-6.4132,-6.4232,-6.4232,-6.4232,-6.4083,-6.4076,-6.407,-6.4064,-6.4087,-6.4094,-6.4101,-6.4271,0,0,-6.4121,-6.4124,0,0,0,0,0,0,0,0,-6.4039,-6.4043,-6.421,-6.421,-6.4211,-6.4232,-6.4232,-6.4232,-6.4081,-6.4076,-6.4071,-6.4066,-6.4089,-6.4094,-6.41,0,0,0,0,0,0,0,0,0,0,0,0,0,0,0,-6.421,-6.421,0,-6.4232,-6.4232,-6.4232,-6.4081,-6.4076,-6.4072,-6.4068,-6.409,-6.4095,-6.4099,0,0,0,0,0,0,0,0,0,0,0,0,0,0,0,0,0,0,0,0,0,0,0,0,0,0,0,0,0,0,0,0,0,0,0,0,0,0,0,0,0,0,0,0,0,0,0,0,0,0,0,0,0,0,0,0,0,0,0,0,0,0,0,0,0,0,0,0,0]}],[{"header":{"parameterUnit":"kt","parameterCategory":2,"dx":1,"dy":1,"la1":30.253999710083008,"la2":30.299108505249023,"lo1":-89.0895004272461,"lo2":-89.04439544677734,"nx":28,"ny":28,"refTime":"2022-10-10T21:00:00:Z","depth":0,"parameterNumber":2,"parameterNumberName":"V-component_of_WINDS"},"data":[-3.6264,-3.628,-3.6257,-3.6263,-3.6244,-3.6244,-3.6236,-3.6224,-3.6208,-3.6205,-3.6198,-3.6176,-3.615,-3.6136,-3.6127,-3.6117,-3.6116,-3.6137,-3.6122,-3.6046,-3.6034,-3.6023,-3.6018,-3.6137,-3.6137,-3.6204,-3.6204,-3.6205,-3.6208,-3.6189,-3.6186,-3.6167,-3.6164,-3.6129,-3.6111,-3.6111,-3.6112,-3.6092,-3.6085,-3.608,-3.6073,-3.6039,-3.6028,-3.6034,-3.6016,-3.6032,-3.6032,-3.6028,-3.5946,-3.5942,-3.6046,-3.6046,-3.6046,-3.6046,-3.6046,-3.6046,-3.6099,-3.6109,-3.6085,-3.6082,-3.6066,-3.6054,-3.6059,-3.6032,-3.6029,-3.6016,-3.5988,-3.5989,-3.5965,-3.594,-3.5926,-3.5925,-3.5903,-3.5913,-3.5916,-3.5919,-3.5926,-3.5832,-3.5922,-3.5922,-3.5921,-3.5921,-3.5921,0,-3.6012,-3.5992,-3.5988,-3.5978,-3.5974,-3.5963,-3.595,-3.5952,-3.5902,-3.5901,-3.5898,-3.5892,-3.588,-3.5874,-3.5859,-3.5842,-3.5805,-3.5799,-3.5806,-3.582,-3.5833,-3.5826,-3.5693,-3.5797,-3.5796,-3.5795,-3.5795,-3.5794,-3.59,-3.5916,-3.588,-3.588,-3.5867,-3.5869,-3.5865,-3.5819,-3.5817,-3.5793,-3.5804,-3.5798,-3.579,-3.5788,-3.5756,-3.5747,-3.573,-3.5772,-3.5728,-3.574,-3.573,-3.573,-3.5731,-3.5782,-3.5783,-3.5785,-3.5786,0,-3.584,-3.5803,-3.5819,-3.5782,-3.5773,-3.5792,-3.5759,-3.5768,-3.5741,-3.5749,-3.5748,-3.5706,-3.5703,-3.5664,-3.5654,-3.5633,-3.566,-3.5643,-3.5668,-3.5662,-3.5696,-3.5694,-3.5812,-3.5825,-3.5701,-3.5702,-3.5703,0,-3.573,-3.5753,-3.5696,-3.5708,-3.573,-3.5685,-3.5708,-3.5687,-3.5667,-3.5673,-3.5626,-3.5632,-3.5581,-3.5582,-3.5552,-3.5567,-3.5565,-3.555,-3.5543,-3.5555,-3.5557,-3.5554,-3.5548,-3.5524,-3.5523,-3.5523,-3.5522,0,-3.564,-3.5636,-3.5655,-3.5648,-3.5611,-3.5621,-3.5606,-3.5583,-3.558,-3.5569,-3.5566,-3.5557,-3.5552,-3.5545,-3.5508,-3.5479,-3.5525,-3.5479,-3.551,-3.5512,-3.5524,-3.5524,-3.5638,-3.5522,-3.5522,-3.5521,-3.5521,0,-3.5546,-3.5537,-3.5571,-3.5539,-3.5539,-3.5552,-3.554,-3.5542,-3.5521,-3.5504,-3.5495,-3.5459,-3.547,-3.5427,-3.544,-3.5415,-3.5412,-3.5399,-3.54,-3.54,-3.5353,-3.5423,-3.5535,-3.5545,-3.5398,-3.5397,-3.5396,0,-3.5452,-3.5476,-3.5438,-3.5471,-3.5477,-3.5423,-3.5436,-3.542,-3.5397,-3.5398,-3.5373,-3.5374,-3.5334,-3.5329,-3.5341,-3.5315,-3.5349,-3.5309,-3.531,-3.5311,-3.5318,-3.542,-3.5447,-3.5514,-3.5382,-3.5383,-3.5384,0,-3.5375,-3.5332,-3.5341,-3.5331,-3.5303,-3.5308,-3.5323,-3.5315,-3.5318,-3.5305,-3.5316,-3.5318,-3.5287,-3.5281,-3.5251,-3.5266,-3.5325,-3.5231,-3.523,-3.5249,-3.5372,-3.5397,-3.5409,-3.5301,-3.5303,-3.5304,-3.5374,0,-3.5242,-3.525,-3.5272,-3.5254,-3.5252,-3.5271,-3.5231,-3.5234,-3.5205,-3.5182,-3.5197,-3.5175,-3.5168,-3.5171,-3.5144,-3.519,-3.5176,-3.5144,-3.51,-3.5167,-3.5189,-3.5198,-3.507,-3.5069,-3.5067,-3.5066,0,0,-3.5162,-3.5173,-3.5131,-3.5145,-3.5141,-3.5086,-3.511,-3.5099,-3.508,-3.5078,-3.5052,-3.5053,-3.5036,-3.506,-3.5078,-3.5075,-3.5079,-3.5058,-3.5135,-3.5143,-3.5151,-3.5175,-3.5185,-3.5064,-3.5063,-3.5063,-3.5063,0,-3.5105,-3.509,-3.5114,-3.5102,-3.5082,-3.5056,-3.5061,-3.5032,-3.5018,-3.5034,-3.4989,-3.4994,-3.4997,-3.4985,-3.4979,-3.5054,-3.502,-3.5054,-3.5107,-3.5124,-3.5133,-3.5142,-3.5168,-3.5178,-3.5059,-3.506,-3.506,0,-3.5022,-3.5001,-3.5009,-3.4998,-3.4984,-3.4992,-3.4936,-3.4947,-3.4952,-3.4893,-3.491,-3.4893,-3.4874,-3.4902,-3.4913,-3.4891,-3.4968,-3.4937,-3.4944,-3.4945,-3.4959,-3.497,-3.4981,-3.4845,-3.4844,-3.4843,0,0,-3.4979,-3.4987,-3.4951,-3.4983,-3.4977,-3.494,-3.494,-3.4913,-3.4897,-3.4892,-3.4869,-3.4855,-3.4856,-3.4857,-3.4856,-3.4892,-3.4885,-3.4912,-3.4922,-3.4931,-3.4936,-3.4952,-3.4964,-3.4841,-3.4841,-3.4841,0,0,-3.4958,-3.4918,-3.4893,-3.4925,-3.4912,-3.4879,-3.49,-3.4868,-3.4863,-3.4857,-3.4811,-3.4805,-3.4831,-3.4816,-3.4791,-3.484,-3.4797,-3.4802,-3.4849,-3.4861,-3.4871,-3.4874,-3.473,0,0,0,0,0,-3.4881,-3.4923,-3.49,-3.49,-3.4886,-3.4891,-3.4889,-3.4852,-3.4822,-3.4839,-3.4815,-3.4779,-3.4792,-3.4769,-3.4769,-3.4798,-3.4813,-3.4818,-3.4822,-3.4891,-3.4904,-3.4916,0,0,0,0,0,0,-3.4881,-3.4881,-3.4899,-3.4868,-3.4865,-3.4889,-3.483,-3.4821,-3.4819,-3.4812,-3.4785,-3.4778,-3.4747,-3.4766,-3.4767,-3.4795,-3.473,-3.4815,-3.4819,-3.4823,-3.4896,-3.4907,-3.4916,0,0,0,0,0,-3.488,-3.488,-3.4869,-3.4867,-3.4864,-3.4825,-3.4828,-3.482,-3.4818,-3.4782,-3.4774,-3.4791,-3.4749,-3.4747,-3.4767,-3.4796,-3.4729,-3.473,-3.4817,-3.4821,-3.4824,-3.4901,0,0,0,0,0,0,-3.488,-3.4873,-3.4867,-3.4865,-3.4849,-3.4823,-3.4818,-3.482,-3.4787,-3.478,-3.4785,-3.478,-3.4751,-3.4749,-3.4748,-3.4798,-3.4729,-3.4729,-3.4729,-3.482,-3.4823,-3.4825,0,0,0,0,0,0,-3.4873,-3.4871,-3.4866,-3.4845,-3.484,-3.4821,-3.4816,-3.4828,-3.4787,-3.4792,-3.4787,-3.4783,-3.4752,-3.475,-3.4749,-3.4769,-3.4728,-3.4729,-3.4729,-3.4729,-3.4822,-3.4824,0,0,0,0,0,0,-3.4871,-3.487,-3.4846,-3.4842,-3.4837,-3.4808,-3.4831,-3.4819,-3.477,-3.4794,-3.4765,-3.4762,-3.4755,-3.4753,-3.4751,-3.4771,-3.4769,-3.4728,-3.4728,-3.4729,-3.4729,0,0,0,0,0,0,0,-3.487,-3.4887,-3.4881,-3.4839,-3.4835,-3.4843,-3.4843,-3.4842,-3.477,-3.4767,-3.4765,-3.4763,-3.4726,-3.4726,-3.4727,-3.4773,0,0,-3.4728,-3.4728,0,0,0,0,0,0,0,0,-3.4887,-3.4887,-3.4881,-3.488,-3.488,-3.4843,-3.4843,-3.4842,-3.4769,-3.4767,-3.4766,-3.4764,-3.4726,-3.4726,-3.4727,0,0,0,0,0,0,0,0,0,0,0,0,0,0,0,-3.4881,-3.488,0,-3.4843,-3.4843,-3.4842,-3.4769,-3.4767,-3.4766,-3.4765,-3.4726,-3.4726,-3.4727,0,0,0,0,0,0,0,0,0,0,0,0,0,0,0,0,0,0,0,0,0,0,0,0,0,0,0,0,0,0,0,0,0,0,0,0,0,0,0,0,0,0,0,0,0,0,0,0,0,0,0,0,0,0,0,0,0,0,0,0,0,0,0,0,0,0,0,0,0]}]]]